Terminal Aerodrome Forecast
Issued by NWS Salt Lake City, UT

Home | Current Version | Previous Version | Text Only | Print | Product List | Glossary On
Versions: 1 2 3 4 5 6 7 8 9 10 11 12 13 14 15 16 17 18 19 20 21 22 23 24 25 26 27 28 29 30 31 32 33 34 35 36 37 38 39 40 41 42 43 44 45 46 47 48 49 50
000
FTUS45 KSLC 281121
TAFSLC
TAF
KSLC 281121Z 2812/2918 15012G20KT P6SM VCSH SCT030 BKN060
     FM281700 29007KT 3/4SM -SN BR SCT004 OVC012
     FM282200 30009KT 2SM -SN BR SCT008 BKN020
     FM290600 33004KT P6SM VCSH SCT020 BKN040=

USA.gov is the U.S. government's official web portal to all federal, state and local government web resources and services.